Regional Weather Roundup
Issued by NWS

Home | Current Version | Previous Version | Graphics & Text | Print | Product List | Glossary Off
Versions: 1 2 3 4 5 6 7 8 9 10 11 12 13 14 15 16 17 18 19 20 21 22 23 24 25 26 27 28 29 30 31 32 33 34 35 36 37 38 39 40 41 42 43 44 45 46 47 48 49 50

000
ASUS43 KDTX 261201
RWRMI
MICHIGAN HOURLY REGIONAL WEATHER ROUNDUP
NATIONAL WEATHER SERVICE DETROIT/PONTIAC MI
700 AM EST FRI DEC 26 2014

NOTE: "FAIR" INDICATES FEW OR NO CLOUDS BELOW 12,000 FEET WITH NO
SIGNIFICANT WEATHER AND/OR OBSTRUCTION TO VISIBILITY.

MIZ047>049-052>055-059>063-066>070-074>076-081>083-261300-
SOUTHEAST LOWER MICHIGAN

CITY           SKY/WX    TMP DP  RH WIND       PRES   REMARKS
ADRIAN         CLEAR     31  29  92 SW9       30.14R WCI  23
6HR MIN TEMP:  30; 6HR MAX TEMP:  34;

ALMA           CLOUDY    34  32  93 S9        30.05R WCI  26
ANN ARBOR      CLEAR     30  28  92 SW7       30.13R WCI  23
BAD AXE        CLOUDY    34  32  94 S8        30.07S WCI  27
CARO           CLOUDY    35  32  88 S7        30.06R WCI  29
DETROIT CITY   PTCLDY    35  30  82 S9        30.14R WCI  28
6HR MIN TEMP:  35; 6HR MAX TEMP:  38;

DETROIT        MOCLDY    32  29  88 S10       30.15R WCI  24
6HR MIN TEMP:  30; 6HR MAX TEMP:  33;

FLINT          MOCLDY    37  31  78 S12       30.08S WCI  29
6HR MIN TEMP:  36; 6HR MAX TEMP:  37;

GROSSE ILE     CLEAR     36  32  87 S14       30.14R WCI  27
HILLSDALE      CLEAR     33  32  99 S9        30.10R WCI  25
6HR MIN TEMP:  32; 6HR MAX TEMP:  34;

HOWELL         PTCLDY    32  31  96 S8        30.08R WCI  25
6HR MIN TEMP:  32; 6HR MAX TEMP:  34;


CITY           SKY/WX    TMP DP  RH WIND       PRES   REMARKS
JACKSON        CLEAR     34  30  85 S10       30.09R WCI  26
6HR MIN TEMP:  34; 6HR MAX TEMP:  36;

LAMBERTVILLE   CLEAR     34  32  93 S7        30.15S WCI  28
LANSING        MOCLDY    35  31  85 S12G21    30.07R WCI  27
6HR MIN TEMP:  34; 6HR MAX TEMP:  36;

LAPEER         FAIR      33  31  92 S6        30.08S WCI  28
MASON          PTCLDY    34  30  86 S7        30.08R WCI  28
MONROE         CLEAR     34  30  86 S10       30.14R WCI  26
MT. CLEMENS    PTCLDY    31  31 100 S10       30.11R WCI  22
6HR MIN TEMP:  30; 6HR MAX TEMP:  36;

PONTIAC        PTCLDY    32  30  92 S7        30.09R WCI  26
6HR MIN TEMP:  31; 6HR MAX TEMP:  34;

PORT HOPE        N/A     34  30  85 CALM      30.05S
6HR MIN TEMP:  33; 6HR MAX TEMP:  35;

PORT HURON     MOCLDY    34  32  93 S10       30.12S WCI  26
TRI CITIES     MOCLDY    36  31  82 S8        30.06R WCI  30
6HR MIN TEMP:  33; 6HR MAX TEMP:  36;

TROY           PTCLDY    34  31  89 S6        30.14R WCI  29
SAGINAW HB     CLOUDY    36  32  87 S9        30.05R WCI  29
$$
MIZ043>046-050>051-056>058-064>065-071>073-077>080-261300-
SOUTHWEST LOWER MICHIGAN

CITY           SKY/WX    TMP DP  RH WIND       PRES   REMARKS
BATTLE CREEK   PTCLDY    34  30  85 S13       30.07R WCI  25
6HR MIN TEMP:  34; 6HR MAX TEMP:  36;

BENTON HARBOR  CLEAR     35  31  85 S7        30.04S WCI  29
6HR MIN TEMP:  34; 6HR MAX TEMP:  38;

BIG RAPIDS     CLOUDY    31  31 100 CALM      30.00S FOG
6HR MIN TEMP:  29; 6HR MAX TEMP:  33;

COLDWATER      CLEAR     34  31  90 MISG      30.09R
6HR MIN TEMP:  33; 6HR MAX TEMP:  36;

FREMONT        FAIR      33  32  96 CALM      30.01R
HOLLAND        MOCLDY    37  31  78 S9        30.04R WCI  30
6HR MIN TEMP:  37; 6HR MAX TEMP:  39;

GRAND RAPIDS   MOCLDY    35  31  85 S10       30.04R WCI  27
6HR MIN TEMP:  33; 6HR MAX TEMP:  36;

IONIA          FAIR      36  32  87 S10       30.04R WCI  28
KALAMAZOO      PTCLDY    33  30  88 S9        30.07R WCI  25
6HR MIN TEMP:  33; 6HR MAX TEMP:  36;

MARSHALL       PTCLDY    33  31  91 S9        30.08R WCI  25
MOUNT PLEASANT FOG       28  27  97 CALM      30.03R VSB 1
6HR MIN TEMP:  26; 6HR MAX TEMP:  32;

MUSKEGON       MOCLDY    39  35  86 S12       30.02R WCI  32
6HR MIN TEMP:  38; 6HR MAX TEMP:  40;

SOUTH HAVEN    PTCLDY    37  32  84 S7        30.04S WCI  31
$$
MIZ016>042-261300-
NORTHERN LOWER MICHIGAN

CITY           SKY/WX    TMP DP  RH WIND       PRES   REMARKS
ALPENA         CLOUDY    34  32  92 S6        30.01F WCI  29
6HR MIN TEMP:  34; 6HR MAX TEMP:  35;

BEAVER ISLAND  CLOUDY    34  34 100 CALM      29.96R FOG
6HR MIN TEMP:  33; 6HR MAX TEMP:  35;

BELLAIRE       CLOUDY    37  34  88 CALM      29.99R
6HR MIN TEMP:  37; 6HR MAX TEMP:  38;

CADILLAC       CLOUDY    34  32  94 S7        29.97S WCI  28
CHARLEVOIX     CLOUDY    38  35  90 S7        29.99S WCI  33
6HR MIN TEMP:  37; 6HR MAX TEMP:  39;

FRANKFORT      PTCLDY    34  32  94 CALM      29.97R
GAYLORD        CLOUDY    35  33  92 S7        29.97R WCI  29
6HR MIN TEMP:  34; 6HR MAX TEMP:  35;

GRAYLING       CLOUDY    36  33  91 S3        29.99R
6HR MIN TEMP:  36; 6HR MAX TEMP:  36;

HARBOR SPRINGS CLOUDY    38  35  87 S6        29.97R WCI  34
HOUGHTON LAKE  CLOUDY    33  31  92 S5        30.00R WCI  29
6HR MIN TEMP:  33; 6HR MAX TEMP:  35;

MANISTEE       PTCLDY    32  28  86 CALM      29.99R
OSCODA         CLOUDY    34  32  93 S7        30.04R WCI  28
PELLSTON       CLOUDY    38  34  85 CALM      29.97S
6HR MIN TEMP:  36; 6HR MAX TEMP:  38;

ROGERS CITY    CLOUDY    36  34  93 S8        30.00S WCI  30
TRAVERSE CITY  MOCLDY    39  34  82 VRB5      29.97R
6HR MIN TEMP:  38; 6HR MAX TEMP:  40;

$$
MIZ007>008-015-261300-
EASTERN UPPER MICHIGAN

CITY           SKY/WX    TMP DP  RH WIND       PRES   REMARKS
KINROSS        CLOUDY    34  34 100 S5        29.96S WCI  30
6HR MIN TEMP:  34; 6HR MAX TEMP:  34;

MACKINAC ISLAN CLOUDY    35  35 100 SE3       29.97R FOG
6HR MIN TEMP:  34; 6HR MAX TEMP:  35;

NEWBERRY       CLOUDY    30  30 100 N7        29.96R FOG     WCI  23
6HR MIN TEMP:  30; 6HR MAX TEMP:  32;

S. S. MARIE    CLOUDY    33  31  92 CALM      29.96S
6HR MIN TEMP:  32; 6HR MAX TEMP:  34; 6HR PCP:  0.01;

MUNISING         N/A     33  30  88 S3        29.96R
6HR MIN TEMP:  32; 6HR MAX TEMP:  34;

$$
MIZ004>006-011>014-085-261300-
CENTRAL UPPER MICHIGAN

CITY           SKY/WX    TMP DP  RH WIND       PRES   REMARKS
MANISTIQUE     CLOUDY    32  32 100 CALM      29.95S FOG
ESCANABA       CLOUDY    32  28  86 CALM      29.94S
6HR MIN TEMP:  30; 6HR MAX TEMP:  32;

MENOMINEE      CLEAR     27  25  93 CALM      29.93R
6HR MIN TEMP:  27; 6HR MAX TEMP:  30;

SAWYER-GWINN   CLOUDY    30  28  93 CALM      29.93R FOG
$$
MIZ001>003-009>011-084-261300-
WESTERN UPPER MICHIGAN

CITY           SKY/WX    TMP DP  RH WIND       PRES   REMARKS
IRON MOUNTAIN  CLOUDY    31  29  92 N3        29.92R
6HR MIN TEMP:  29; 6HR MAX TEMP:  31;

HOUGHTON       CLOUDY    30  28  92 CALM      29.93R
6HR MIN TEMP:  30; 6HR MAX TEMP:  31; 6HR PCP: TRACE;

COPPER HARBOR    N/A     33  30  88 NE3       29.94R
6HR MIN TEMP:  33; 6HR MAX TEMP:  34;

IRONWOOD       CLOUDY    28  27  93 CALM      29.91R
6HR MIN TEMP:  28; 6HR MAX TEMP:  30;

$$

ABBREVIATIONS USED IN REMARKS
   TC - TEMPERATURE IN CELSIUS
  WCI - WIND CHILL INDEX
   HX - HEAT INDEX
  VSB - VISIBILITY




USA.gov is the U.S. government's official web portal to all federal, state and local government web resources and services.